Location: Cherry Springs State Park
(41.6616°N, 77.8240°W)
Time: 01:05:15
(UTC-05:00)

Amateur Radio Satellites - All Passes

Search period start: 20 November 2017 00:35
Search period end: 21 November 2017 00:35
Location: Cherry Springs State Park, 41.6616°N, 77.8240°W

Satellite Date Start Highest point End Downlink Frequencies (MHz)
Time Altitude Azimuth
VELOX 1 20 Nov 00:36:02 00:40:16 44° 261° (W) 00:44:32 145.980
UKube-1 20 Nov 00:36:25 00:40:03 27° 67° (ENE) 00:43:41 .
NO-84 20 Nov 00:37:20 00:38:10 10° 240° (WSW) 00:38:59 435.350 FM
AIST 2D 20 Nov 00:38:15 00:39:58 13° 294° (WNW) 00:41:42 435.315
50 SAT 20 Nov 00:41:14 00:44:22 48° 74° (ENE) 00:47:32 437.505
ISS 20 Nov 00:41:52 00:43:46 14° 358° (N) 00:45:39 437.550
Oscar 19 20 Nov 00:43:48 00:47:25 19° 92° (E) 00:51:00 437.125/150
PCSat 20 Nov 00:44:31 00:49:54 82° 119° (ESE) 00:55:22 145.827
Gurwin Techsat 1B 20 Nov 00:56:43 01:00:20 18° 92° (E) 01:03:55 435.225
DUCHIFAT 1 20 Nov 01:11:45 01:15:22 29° 291° (WNW) 01:18:58 145.980
EO-79 20 Nov 01:17:33 01:20:40 21° 294° (WNW) 01:23:47 145.935-145.965
NANOSAT C BR1 20 Nov 01:21:50 01:24:58 21° 293° (WNW) 01:28:04 145.865
DX 1 20 Nov 01:26:16 01:30:32 54° 260° (W) 01:34:51 434.975-435.025
MOZHAYETS 4 20 Nov 01:31:45 01:35:00 20° 65° (ENE) 01:38:15
POLYITAN 1 20 Nov 01:33:04 01:35:25 15° 296° (WNW) 01:37:46 437.675
nSIGHT-1 20 Nov 01:39:29 01:41:37 16° 12° (NNE) 01:43:46 .
BEESAT 3 20 Nov 01:52:17 01:52:43 10° 108° (ESE) 01:53:09 437.485
RS-15 20 Nov 01:58:41 02:09:23 35° 32° (NNE) 02:19:34 29.354- 29.394
M-CUBED/EXP-1 PRIME 20 Nov 01:59:45 02:02:37 16° 97° (E) 02:05:31 437.505
BUGSAT 1 20 Nov 02:10:27 02:13:49 26° 292° (WNW) 02:17:10 437.445
UKube-1 20 Nov 02:12:17 02:15:58 27° 264° (W) 02:19:41 .
ISS 20 Nov 02:18:33 02:21:09 21° 18° (NNE) 02:23:43 437.550
Oscar 19 20 Nov 02:22:00 02:27:01 53° 288° (WNW) 02:32:01 437.125/150
PCSat 20 Nov 02:30:15 02:33:59 18° 317° (NW) 02:37:43 145.827
BEESAT 20 Nov 02:32:03 02:36:46 64° 74° (ENE) 02:41:30 436.000
ITAMSAT 1 20 Nov 02:34:41 02:36:19 11° 89° (E) 02:37:56 435.822/435.867
Gurwin Techsat 1B 20 Nov 02:35:25 02:40:38 57° 288° (WNW) 02:45:49 435.225
ITUPSAT 1 20 Nov 02:40:41 02:45:28 77° 74° (ENE) 02:50:16 437.325
BEESAT 2 20 Nov 02:57:58 03:00:26 16° 110° (ESE) 03:02:54 435.950
MOZHAYETS 4 20 Nov 03:07:29 03:11:50 43° 262° (W) 03:16:12
AO-7 20 Nov 03:13:58 03:21:54 45° 100° (E) 03:29:47 .
CUBESAT XI-V 20 Nov 03:14:57 03:19:23 51° 72° (ENE) 03:23:51 437.345
nSIGHT-1 20 Nov 03:15:16 03:18:25 52° 31° (NNE) 03:21:32 .
BEESAT 3 20 Nov 03:25:40 03:29:38 71° 303° (WNW) 03:33:39 437.485
M-CUBED/EXP-1 PRIME 20 Nov 03:32:47 03:37:11 55° 292° (WNW) 03:41:43 437.505
KKS-1 20 Nov 03:33:59 03:37:15 20° 65° (ENE) 03:40:33 437.445
DOVE 4 20 Nov 03:48:20 03:49:24 11° 86° (E) 03:50:29 437.250
ISS 20 Nov 03:54:41 03:57:57 83° 216° (SW) 04:01:11 437.550
STARS 20 Nov 04:02:46 04:05:33 17° 64° (ENE) 04:08:21 437.465
ITAMSAT 1 20 Nov 04:11:10 04:16:25 84° 283° (WNW) 04:21:36 435.822/435.867
RS-15 20 Nov 04:11:34 04:23:30 88° 241° (WSW) 04:34:45 29.354- 29.394
BEESAT 20 Nov 04:12:37 04:14:58 13° 269° (W) 04:17:18 436.000
ITUPSAT 1 20 Nov 04:22:25 04:23:48 11° 271° (W) 04:25:11 437.325
BEESAT 2 20 Nov 04:33:52 04:37:46 47° 307° (NW) 04:41:42 435.950
AO-85 20 Nov 04:41:39 04:45:31 79° 119° (ESE) 04:49:34 145.980
nSIGHT-1 20 Nov 04:52:09 04:54:23 18° 227° (SW) 04:56:35 .
CUBESAT XI-V 20 Nov 04:54:14 04:57:03 16° 269° (W) 04:59:51 437.345
AO-7 20 Nov 05:06:53 05:14:35 43° 299° (WNW) 05:22:17 .
BEESAT 3 20 Nov 05:07:14 05:07:55 10° 323° (NW) 05:08:36 437.485
KKS-1 20 Nov 05:09:18 05:13:30 40° 261° (W) 05:17:46 437.445
YUBILEINY 20 Nov 05:14:57 05:23:14 50° 89° (E) 05:31:35 435.215
STRAND 1 20 Nov 05:16:59 05:19:14 13° 59° (ENE) 05:21:31 437.568
DOVE 4 20 Nov 05:22:33 05:27:49 88° 288° (WNW) 05:32:47 437.250
NUDT-PHONESAT 20 Nov 05:25:11 05:26:08 11° 91° (E) 05:27:03 437.300
XW-2C 20 Nov 05:28:16 05:30:59 18° 93° (E) 05:33:42 145.795 - 145.815
LilacSat-2 20 Nov 05:28:26 05:31:19 20° 94° (E) 05:34:13 437.200
CUTE-I 20 Nov 05:34:18 05:38:22 22° 93° (E) 05:42:24 437.470
STARS 20 Nov 05:37:10 05:41:29 50° 260° (W) 05:45:49 437.465
XW-2F 20 Nov 05:39:55 05:43:01 23° 95° (E) 05:46:06 145.980 - 146.000
ITAMSAT 1 20 Nov 05:53:15 05:55:02 12° 303° (WNW) 05:56:49 435.822/435.867
KAITUO 1B 20 Nov 06:09:44 06:13:19 42° 99° (E) 06:16:55 145.475/437.950
SO-50 20 Nov 06:15:07 06:19:25 37° 49° (NE) 06:23:47 436.795
XW-2D 20 Nov 06:21:09 06:24:58 88° 102° (ESE) 06:28:47 145.860 - 145.880
AO-85 20 Nov 06:24:32 06:26:30 13° 322° (NW) 06:28:31 145.980
RS-15 20 Nov 06:26:05 06:34:06 22° 261° (W) 06:41:54 29.354- 29.394
HO-68 20 Nov 06:30:58 06:37:19 32° 96° (E) 06:43:35 435.675
XW-2B 20 Nov 06:35:59 06:39:45 63° 285° (WNW) 06:43:31 145.730 - 145.750
CUTE 1.7 + AOD 2 20 Nov 06:37:30 06:41:12 28° 96° (E) 06:44:54 437.475
FO-29 20 Nov 06:44:05 06:49:32 27° 60° (ENE) 06:55:27 435.910
UWE-3 20 Nov 06:46:27 06:47:00 10° 89° (E) 06:47:32 435.000/436.395/437.385
STRAND 1 20 Nov 06:52:31 06:57:41 86° 258° (WSW) 07:02:51 437.568
NUDT-PHONESAT 20 Nov 06:56:38 07:00:14 48° 286° (WNW) 07:03:49 437.300
XW-2C 20 Nov 07:01:51 07:05:11 30° 289° (WNW) 07:08:32 145.795 - 145.815
LilacSat-2 20 Nov 07:02:17 07:05:35 28° 290° (WNW) 07:08:52 437.200
DOVE 4 20 Nov 07:02:37 07:04:36 12° 301° (WNW) 07:06:33 437.250
XW-2A 20 Nov 07:06:12 07:08:02 14° 93° (E) 07:09:52 145.665 - 145.685
SEEDS 20 Nov 07:10:15 07:14:16 40° 98° (E) 07:18:15 437.485
YUBILEINY 20 Nov 07:12:20 07:20:13 37° 289° (WNW) 07:28:14 435.215
CUTE-I 20 Nov 07:13:30 07:18:40 49° 290° (WNW) 07:23:47 437.470
XW-2F 20 Nov 07:13:59 07:17:02 23° 291° (WNW) 07:20:04 145.980 - 146.000
CUBEBUG 2 20 Nov 07:20:22 07:24:25 48° 99° (E) 07:28:25 437.445
AAUSAT CUBESAT 2 20 Nov 07:21:21 07:24:42 23° 94° (E) 07:28:01 437.432
AO-73 20 Nov 07:29:42 07:32:09 15° 92° (E) 07:34:37 145.935
KAITUO 1B 20 Nov 07:44:57 07:46:55 14° 294° (WNW) 07:48:55 145.475/437.950
Oscar 11 20 Nov 07:47:19 07:50:10 17° 92° (E) 07:53:00 .
PCSat 20 Nov 07:50:32 07:53:09 13° 38° (NE) 07:55:46 145.827
SO-50 20 Nov 07:55:49 07:59:45 27° 246° (WSW) 08:03:43 436.795
ZACube-1 20 Nov 08:12:45 08:16:49 54° 100° (E) 08:20:54 437.345
CUTE 1.7 + AOD 2 20 Nov 08:13:25 08:16:55 25° 292° (WNW) 08:20:24 437.475
HO-68 20 Nov 08:18:21 08:25:12 50° 294° (WNW) 08:32:02 435.675
UWE-3 20 Nov 08:19:45 08:23:52 63° 286° (WNW) 08:27:57 435.000/436.395/437.385
FO-29 20 Nov 08:27:30 08:33:56 62° 261° (W) 08:41:13 435.910
XW-2A 20 Nov 08:37:50 08:40:48 30° 288° (WNW) 08:43:46 145.665 - 145.685
PRISM 20 Nov 08:42:53 08:45:16 15° 64° (ENE) 08:47:40 437.425
SEEDS 20 Nov 08:46:43 08:49:38 18° 294° (WNW) 08:52:33 437.485
UNISAT 6 20 Nov 08:55:35 09:00:06 60° 74° (ENE) 09:04:33 437.425
AAUSAT CUBESAT 2 20 Nov 08:56:29 09:00:08 30° 290° (WNW) 09:03:46 437.432
CUBEBUG 2 20 Nov 08:58:18 09:00:38 15° 296° (WNW) 09:02:57 437.445
TIGRISAT 20 Nov 09:00:15 09:04:47 61° 74° (ENE) 09:09:14 435.000
AO-73 20 Nov 09:04:41 09:08:36 42° 288° (WNW) 09:12:31 145.935
Oscar 11 20 Nov 09:22:23 09:26:29 42° 288° (WNW) 09:30:34 .
Max Valier Satellite 20 Nov 09:23:43 09:26:49 25° 96° (E) 09:29:55 145.860
EO-88 20 Nov 09:25:10 09:27:46 18° 94° (E) 09:30:22 145.990 - 145.960
PCSat 20 Nov 09:32:11 09:37:36 67° 58° (ENE) 09:42:58 145.827
DELFI C3 20 Nov 09:37:25 09:41:23 58° 100° (E) 09:45:18 145.870
AIST 2D 20 Nov 09:39:12 09:41:10 15° 67° (ENE) 09:43:08 435.315
ZACube-1 20 Nov 09:50:39 09:52:40 13° 296° (WNW) 09:54:40 437.345
FALCONSAT 3 20 Nov 10:05:03 10:07:21 16° 159° (SSE) 10:09:40 435.103
PRISM 20 Nov 10:16:09 10:20:07 47° 260° (W) 10:24:09 437.425
ESTCUBE 1 20 Nov 10:26:27 10:27:44 11° 89° (E) 10:29:02 437.505/2401.250
DUCHIFAT 1 20 Nov 10:28:36 10:31:31 18° 66° (ENE) 10:34:25 145.980
EO-79 20 Nov 10:33:48 10:37:22 27° 69° (ENE) 10:40:56 145.935-145.965
UNISAT 6 20 Nov 10:34:55 10:37:08 13° 269° (W) 10:39:21 437.425
NANOSAT C BR1 20 Nov 10:37:50 10:41:21 26° 68° (ENE) 10:44:52 145.865
TIGRISAT 20 Nov 10:39:41 10:41:49 13° 269° (W) 10:43:55 435.000
POLYITAN 1 20 Nov 10:48:23 10:52:19 38° 71° (ENE) 10:56:15 437.675
Max Valier Satellite 20 Nov 10:57:46 11:00:29 20° 292° (WNW) 11:03:13 145.860
EO-88 20 Nov 10:58:17 11:01:24 27° 290° (WNW) 11:04:32 145.990 - 145.960
AIST 2D 20 Nov 11:10:56 11:14:02 32° 263° (W) 11:17:11 435.315
QB50P2 20 Nov 11:11:14 11:15:29 78° 74° (ENE) 11:19:44 145.880/145.840
DELFI C3 20 Nov 11:14:06 11:15:37 12° 297° (WNW) 11:17:07 145.870
BEESAT 2 20 Nov 11:14:39 11:16:47 14° 40° (NE) 11:18:53 435.950
PCSat 20 Nov 11:17:01 11:20:24 17° 255° (WSW) 11:23:46 145.827
BUGSAT 1 20 Nov 11:25:13 11:28:13 19° 66° (ENE) 11:31:11 437.445
LO-87 20 Nov 11:25:40 11:29:12 75° 102° (ESE) 11:32:43 145.935 - 145.965
AO-85 20 Nov 11:32:57 11:35:05 13° 38° (NE) 11:37:17 145.980
BEESAT 3 20 Nov 11:42:01 11:45:57 68° 56° (NE) 11:49:48 437.485
FALCONSAT 3 20 Nov 11:42:38 11:45:53 29° 174° (S) 11:49:08 435.103
SPROUT 20 Nov 11:55:05 11:58:31 24° 95° (E) 12:01:57 437.525
ESTCUBE 1 20 Nov 12:00:29 12:05:00 71° 286° (WNW) 12:09:31 437.505/2401.250
Oscar 19 20 Nov 12:00:38 12:04:59 29° 66° (ENE) 12:09:20 437.125/150
DUCHIFAT 1 20 Nov 12:02:55 12:06:53 39° 262° (W) 12:10:51 145.980
EO-79 20 Nov 12:09:27 12:13:03 26° 265° (W) 12:16:38 145.935-145.965
NANOSAT C BR1 20 Nov 12:13:22 12:16:58 27° 264° (W) 12:20:34 145.865
Gurwin Techsat 1B 20 Nov 12:17:39 12:22:14 31° 66° (ENE) 12:26:51 435.225
O/OREOS (USA 219) 20 Nov 12:22:03 12:23:36 12° 97° (E) 12:25:09 437.305
POLYITAN 1 20 Nov 12:25:15 12:28:12 18° 267° (W) 12:31:10 437.675
VELOX 1 20 Nov 12:25:38 12:29:40 33° 97° (E) 12:33:40 145.980
AO-7 20 Nov 12:25:44 12:29:55 15° 45° (NE) 12:34:05 .
M-CUBED/EXP-1 PRIME 20 Nov 12:46:03 12:48:20 16° 59° (ENE) 12:50:44 437.505
BEESAT 2 20 Nov 12:50:59 12:55:01 78° 239° (WSW) 12:58:58 435.950
BUGSAT 1 20 Nov 12:59:23 13:03:17 37° 262° (W) 13:07:11 437.445
AO-85 20 Nov 13:11:33 13:16:14 72° 56° (NE) 13:21:17 145.980
DX 1 20 Nov 13:14:29 13:18:06 24° 95° (E) 13:21:40 434.975-435.025
FALCONSAT 3 20 Nov 13:21:23 13:24:32 27° 190° (S) 13:27:42 435.103
BEESAT 3 20 Nov 13:22:25 13:22:53 10° 252° (WSW) 13:23:20 437.485
50 SAT 20 Nov 13:30:13 13:33:16 38° 99° (E) 13:36:17 437.505
SPROUT 20 Nov 13:30:43 13:34:24 29° 291° (WNW) 13:38:03 437.525
Oscar 19 20 Nov 13:39:31 13:44:10 35° 263° (W) 13:48:50 437.125/150
ITAMSAT 1 20 Nov 13:51:43 13:55:28 21° 62° (ENE) 13:59:15 435.822/435.867
Gurwin Techsat 1B 20 Nov 13:57:15 14:02:04 35° 263° (W) 14:06:55 435.225
O/OREOS (USA 219) 20 Nov 13:57:47 14:02:21 70° 294° (WNW) 14:06:58 437.305
UKube-1 20 Nov 13:58:09 14:02:19 45° 100° (E) 14:06:27 .
VELOX 1 20 Nov 14:02:21 14:05:56 24° 293° (WNW) 14:09:29 145.980
AO-7 20 Nov 14:12:56 14:21:03 63° 66° (ENE) 14:29:12 .
NO-84 20 Nov 14:14:02 14:15:41 13° 122° (ESE) 14:17:22 435.350 FM
M-CUBED/EXP-1 PRIME 20 Nov 14:19:10 14:22:24 35° 258° (WSW) 14:25:54 437.505
BEESAT 20 Nov 14:33:11 14:36:01 16° 92° (E) 14:38:51 436.000
ITUPSAT 1 20 Nov 14:41:51 14:45:11 19° 93° (E) 14:48:31 437.325
DX 1 20 Nov 14:50:25 14:54:15 30° 292° (WNW) 14:58:04 434.975-435.025
DOVE 4 20 Nov 14:53:12 14:55:19 13° 59° (ENE) 14:57:29 437.250
AO-85 20 Nov 14:53:32 14:56:13 15° 251° (WSW) 14:58:59 145.980
FALCONSAT 3 20 Nov 15:01:26 15:02:59 12° 204° (SSW) 15:04:33 435.103
MOZHAYETS 4 20 Nov 15:01:55 15:06:14 41° 98° (E) 15:10:32
50 SAT 20 Nov 15:04:09 15:04:59 11° 295° (WNW) 15:05:49 437.505
CUBESAT XI-V 20 Nov 15:12:56 15:14:57 13° 90° (E) 15:16:57 437.345
YUBILEINY 20 Nov 15:25:08 15:32:09 25° 65° (ENE) 15:39:04 435.215
ITAMSAT 1 20 Nov 15:29:25 15:34:31 54° 260° (W) 15:39:40 435.822/435.867
UKube-1 20 Nov 15:35:08 15:37:58 17° 296° (WNW) 15:40:47 .
NO-84 20 Nov 15:48:42 15:52:23 76° 318° (NW) 15:56:25 435.350 FM
AO-7 20 Nov 16:07:18 16:14:15 29° 264° (W) 16:21:16 .
BEESAT 20 Nov 16:09:28 16:14:07 55° 288° (WNW) 16:18:44 436.000
LilacSat-2 20 Nov 16:12:20 16:13:23 11° 64° (ENE) 16:14:26 437.200
ITUPSAT 1 20 Nov 16:18:41 16:23:14 46° 289° (WNW) 16:27:45 437.325
XW-2F 20 Nov 16:22:17 16:23:50 12° 65° (ENE) 16:25:24 145.980 - 146.000
DOVE 4 20 Nov 16:27:07 16:32:07 90° 257° (WSW) 16:37:24 437.250
RS-15 20 Nov 16:30:52 16:35:10 12° 93° (E) 16:39:28 29.354- 29.394
MOZHAYETS 4 20 Nov 16:39:45 16:43:06 20° 295° (WNW) 16:46:27
CUBESAT XI-V 20 Nov 16:48:04 16:52:44 67° 285° (WNW) 16:57:23 437.345
KAITUO 1B 20 Nov 16:50:13 16:52:57 20° 68° (ENE) 16:55:41 145.475/437.950
CUTE-I 20 Nov 16:55:58 17:00:50 36° 68° (ENE) 17:05:43 437.470
KKS-1 20 Nov 16:59:45 17:03:53 36° 98° (E) 17:07:58 437.445
HO-68 20 Nov 17:00:33 17:06:15 26° 59° (ENE) 17:11:57 435.675
XW-2D 20 Nov 17:02:15 17:05:45 40° 73° (ENE) 17:09:17 145.860 - 145.880
XW-2B 20 Nov 17:16:52 17:20:31 59° 75° (ENE) 17:24:14 145.730 - 145.750
YUBILEINY 20 Nov 17:20:59 17:29:48 74° 267° (W) 17:38:35 435.215
STARS 20 Nov 17:26:24 17:30:10 27° 96° (E) 17:33:54 437.465
NO-84 20 Nov 17:27:29 17:30:22 19° 340° (NNW) 17:33:22 435.350 FM
CUTE 1.7 + AOD 2 20 Nov 17:30:38 17:33:47 21° 67° (ENE) 17:36:57 437.475
NUDT-PHONESAT 20 Nov 17:35:09 17:38:45 70° 77° (ENE) 17:42:25 437.300
XW-2C 20 Nov 17:42:25 17:46:05 61° 259° (W) 17:49:48 145.795 - 145.815
LilacSat-2 20 Nov 17:43:29 17:47:09 55° 260° (W) 17:50:52 437.200
UWE-3 20 Nov 17:43:56 17:44:47 10° 62° (ENE) 17:45:37 435.000/436.395/437.385
XW-2F 20 Nov 17:53:56 17:57:31 46° 261° (W) 18:01:08 145.980 - 146.000
SEEDS 20 Nov 18:02:06 18:05:37 28° 69° (ENE) 18:09:12 437.485
DOVE 4 20 Nov 18:09:48 18:10:33 10° 274° (W) 18:11:17 437.250
AAUSAT CUBESAT 2 20 Nov 18:12:13 18:14:46 16° 65° (ENE) 18:17:19 437.432
CUBEBUG 2 20 Nov 18:17:59 18:22:19 42° 72° (ENE) 18:26:33 437.445
KAITUO 1B 20 Nov 18:23:39 18:26:45 26° 264° (W) 18:29:54 145.475/437.950
AO-73 20 Nov 18:26:00 18:28:07 14° 64° (ENE) 18:30:13 145.935
RS-15 20 Nov 18:33:01 18:45:00 62° 113° (ESE) 18:56:57 29.354- 29.394
CUTE-I 20 Nov 18:36:15 18:40:53 30° 264° (W) 18:45:34 437.470
KKS-1 20 Nov 18:36:46 18:40:12 22° 294° (WNW) 18:43:38 437.445
XW-2D 20 Nov 18:38:18 18:40:07 13° 269° (W) 18:41:56 145.860 - 145.880
Oscar 11 20 Nov 18:43:03 18:45:18 14° 64° (ENE) 18:47:35 .
HO-68 20 Nov 18:46:16 18:53:24 66° 257° (WSW) 19:00:35 435.675
STARS 20 Nov 19:02:42 19:06:26 27° 292° (WNW) 19:10:07 437.465
STRAND 1 20 Nov 19:03:09 19:07:42 31° 96° (E) 19:12:12 437.568
CUTE 1.7 + AOD 2 20 Nov 19:05:36 19:09:23 33° 263° (W) 19:13:13 437.475
NO-84 20 Nov 19:07:09 19:09:04 13° 1° (N) 19:11:02 435.350 FM
XW-2A 20 Nov 19:08:12 19:11:30 81° 78° (ENE) 19:14:50 145.665 - 145.685
ZACube-1 20 Nov 19:08:21 19:12:27 43° 73° (ENE) 19:16:29 437.345
UWE-3 20 Nov 19:16:07 19:20:36 81° 257° (WSW) 19:25:00 435.000/436.395/437.385
YUBILEINY 20 Nov 19:21:08 19:24:56 14° 286° (WNW) 19:28:44 435.215
FO-29 20 Nov 19:37:26 19:43:39 25° 89° (E) 19:49:33 435.910
SEEDS 20 Nov 19:37:53 19:41:16 24° 266° (W) 19:44:42 437.485
AAUSAT CUBESAT 2 20 Nov 19:45:55 19:49:50 43° 262° (W) 19:53:49 437.432
nSIGHT-1 20 Nov 19:54:22 19:55:48 12° 130° (SE) 19:57:15 .
CUBEBUG 2 20 Nov 19:55:50 19:59:04 19° 267° (W) 20:02:15 437.445
AO-73 20 Nov 19:59:39 20:03:53 57° 260° (W) 20:08:04 145.935
Max Valier Satellite 20 Nov 20:03:57 20:05:37 13° 65° (ENE) 20:07:16 145.860
Oscar 11 20 Nov 20:16:46 20:20:58 55° 260° (W) 20:25:13 .
DELFI C3 20 Nov 20:22:36 20:26:09 32° 71° (ENE) 20:29:43 145.870
ISS 20 Nov 20:34:53 20:37:40 26° 135° (SE) 20:40:27 437.550
STRAND 1 20 Nov 20:42:20 20:46:49 31° 293° (WNW) 20:51:16 437.568
NO-84 20 Nov 20:44:28 20:47:44 21° 22° (NNE) 20:51:02 435.350 FM
ZACube-1 20 Nov 20:46:08 20:48:54 17° 268° (W) 20:51:39 437.345
RS-15 20 Nov 20:46:14 20:58:00 48° 318° (NW) 21:09:41 29.354- 29.394
UNISAT 6 20 Nov 20:49:21 20:50:38 11° 90° (E) 20:51:56 437.425
TIGRISAT 20 Nov 20:53:46 20:55:10 11° 90° (E) 20:56:33 435.000
FO-29 20 Nov 21:21:23 21:29:14 70° 288° (WNW) 21:36:37 435.910
ESTCUBE 1 20 Nov 21:26:35 21:28:04 11° 61° (ENE) 21:29:32 437.505/2401.250
nSIGHT-1 20 Nov 21:28:25 21:31:38 73° 326° (NNW) 21:34:51 .
EO-88 20 Nov 21:35:02 21:38:37 65° 259° (W) 21:42:14 145.990 - 145.960
Max Valier Satellite 20 Nov 21:35:33 21:39:03 43° 261° (W) 21:42:33 145.860
PRISM 20 Nov 21:57:29 22:00:44 22° 95° (E) 22:03:56 437.425
DELFI C3 20 Nov 21:58:09 22:00:57 19° 267° (W) 22:03:47 145.870
LO-87 20 Nov 22:01:35 22:04:44 29° 71° (ENE) 22:07:54 145.935 - 145.965
SO-50 20 Nov 22:09:19 22:13:47 89° 312° (NW) 22:18:19 436.795
ISS 20 Nov 22:10:55 22:14:02 39° 332° (NNW) 22:17:08 437.550
NO-84 20 Nov 22:21:22 22:25:39 82° 41° (NE) 22:29:54 435.350 FM
UNISAT 6 20 Nov 22:23:32 22:27:47 61° 285° (WNW) 22:31:57 437.425
TIGRISAT 20 Nov 22:28:03 22:32:16 60° 286° (WNW) 22:36:26 435.000
O/OREOS (USA 219) 20 Nov 22:28:56 22:32:41 25° 57° (ENE) 22:36:24 437.305
AIST 2D 20 Nov 22:35:48 22:38:08 16° 93° (E) 22:40:27 435.315
SPROUT 20 Nov 22:48:44 22:51:50 20° 66° (ENE) 22:54:55 437.525
QB50P2 20 Nov 22:57:44 22:59:24 12° 90° (E) 23:01:04 145.880/145.840
ESTCUBE 1 20 Nov 22:59:44 23:04:12 77° 256° (WSW) 23:08:43 437.505/2401.250
RS-15 20 Nov 23:05:16 23:14:39 24° 350° (N) 23:23:49 29.354- 29.394
nSIGHT-1 20 Nov 23:05:57 23:08:18 18° 345° (NNW) 23:10:39 .
FO-29 20 Nov 23:08:30 23:12:47 16° 308° (NW) 23:17:01 435.910
VELOX 1 20 Nov 23:22:53 23:26:45 30° 68° (ENE) 23:30:38 145.980
PRISM 20 Nov 23:32:19 23:36:00 31° 291° (WNW) 23:39:40 437.425
LO-87 20 Nov 23:35:45 23:38:10 17° 267° (W) 23:40:36 145.935 - 145.965
DUCHIFAT 1 20 Nov 23:46:28 23:50:08 29° 96° (E) 23:53:46 145.980
ISS 20 Nov 23:49:05 23:51:10 16° 351° (N) 23:53:15 437.550
SO-50 20 Nov 23:52:24 23:54:54 14° 322° (NW) 23:57:24 436.795
EO-79 20 Nov 23:52:57 23:57:00 46° 99° (E) 00:01:01 145.935-145.965
NANOSAT C BR1 20 Nov 23:56:32 00:00:32 44° 99° (E) 00:04:31 145.865
50 SAT 20 Nov 23:58:41 00:00:14 13° 66° (ENE) 00:01:48 437.505
NO-84 21 Nov 00:00:09 00:02:30 15° 237° (WSW) 00:04:49 435.350 FM
O/OREOS (USA 219) 21 Nov 00:08:02 00:12:08 34° 255° (WSW) 00:16:12 437.305
POLYITAN 1 21 Nov 00:08:03 00:12:14 70° 102° (ESE) 00:16:24 437.675
AIST 2D 21 Nov 00:08:16 00:11:19 28° 289° (WNW) 00:14:22 435.315
DX 1 21 Nov 00:10:14 00:13:40 23° 66° (ENE) 00:17:07 434.975-435.025
PCSat 21 Nov 00:13:45 00:19:03 59° 115° (ESE) 00:24:24 145.827
SPROUT 21 Nov 00:23:27 00:27:26 37° 262° (W) 00:31:26 437.525
